Regional Weather Roundup
Issued by NWS

Home | Current Version | Previous Version | Text Only | Print | Product List | Glossary Off
Versions: 1 2 3 4 5 6 7 8 9 10 11 12 13 14 15 16 17 18 19 20 21 22 23 24 25 26 27 28 29 30 31 32 33 34 35 36 37 38 39 40 41 42 43 44 45 46 47 48 49 50

217
ASUS43 KMPX 180010
RWRMN
WEATHER ROUNDUP FOR MINNESOTA
NATIONAL WEATHER SERVICE TWIN CITIES/CHANHASSEN MN
600 PM CST TUE JAN 17 2017


NOTE: "FAIR" INDICATES FEW OR NO CLOUDS BELOW 12,000 FEET WITH NO
SIGNIFICANT WEATHER AND/OR OBSTRUCTIONS TO VISIBILITY. N/A MEANS
CURRENT SKY AND/OR WEATHER CONDITIONS ARE NOT AVAILABLE.

MNZ060>063-068>070-180100-
   Twin Cities Metro

CITY           SKY/WX    TMP DP  RH WIND       PRES   REMARKS
TWIN CITIES    CLOUDY    33  30  88 W8        29.99S WCI  26
6HR MIN TEMP:  33; 6HR MAX TEMP:  35;

ST PAUL        CLOUDY    34  32  92 SW9       30.00F WCI  27
CRYSTAL        CLOUDY    33  29  85 SW7       29.98S WCI  27
BLAINE         CLOUDY    34  34 100 SW5       29.98R WCI  30
LAKEVILLE      CLOUDY    30  30 100 W7        29.99S WCI  23
EDEN PRAIRIE   CLOUDY    34  31  88 W8        29.98S WCI  27
6HR MIN TEMP:  34; 6HR MAX TEMP:  36;

SOUTH ST PAUL  CLOUDY    34  32  93 SW7       29.99S WCI  28
LAKE ELMO      CLOUDY    34  32  93 W7        29.99S FOG     WCI  28
$$
MNZ001>005-007-008-013>017-022>024-027-028-180100-
   Northwest Minnesota

CITY           SKY/WX    TMP DP  RH WIND       PRES   REMARKS
BEMIDJI        CLOUDY    28  20  71 S6        29.84S WCI  22
HALLOCK        CLOUDY    19  16  86 S24       29.69F WCI   2
ROSEAU         CLOUDY    25  19  80 S17       29.72F WCI  11
WARROAD        CLOUDY    27  21  80 S9        29.72F WCI  17
THIEF RVR FALL CLOUDY    22  18  85 S16       29.78F WCI   8
CROOKSTON      CLOUDY    19  18  93 S21       29.81F WCI   3
FOSSTON        CLOUDY    19  18  93 S15       29.83F WCI   5
DETROIT LAKES  CLOUDY    23  19  86 S6        29.88F WCI  16
MOORHEAD       CLOUDY    18  14  86 S14       29.89F WCI   4
PARK RAPIDS    PTCLDY    21  13  71 S5        29.88S WCI  15
MAHNOMEN       FAIR      23  18  82 S16       29.85S WCI   9
$$
MNZ006-009>011-018-025>026-180100-
   North Central Minnesota

CITY           SKY/WX    TMP DP  RH WIND       PRES   REMARKS
BAUDETTE       CLOUDY    25  18  74 S9        29.76F WCI  15
FLAG ISLAND    CLOUDY    18  14  86 S14       29.71F WCI   4
INTL FALLS     CLOUDY    25  15  66 VRB3      29.80F
6HR MIN TEMP:  22; 6HR MAX TEMP:  32;

WASKISH        CLOUDY    16  12  86 S3        29.81F
BIG FORK       CLOUDY    25  16  68 SW5       29.84F WCI  19
LONGVILLE      CLOUDY    28  16  59 S3        29.88S
GRAND RAPIDS   CLOUDY    29  16  58 S7        29.88F WCI  22
CRANE LAKE     CLOUDY    21  19  93 S3        29.84F
ORR            CLOUDY    28  16  59 CALM      29.81F
COOK           CLEAR     30  18  59 S3        29.84F
WALKER         FAIR      27  18  70 SW7       29.86S WCI  19
$$
MNZ012-019>021-037-180100-
   Northeast Minnesota

CITY           SKY/WX    TMP DP  RH WIND       PRES   REMARKS
DULUTH         CLOUDY    29  24  82 SW3       29.88S
6HR MIN TEMP:  27; 6HR MAX TEMP:  37;

ELY            CLOUDY    28  18  64 CALM      29.85S
HIBBING        CLOUDY    28  14  55 S3        29.86F
EVELETH        CLOUDY    30  16  57 SW3       29.87F
DULUTH HARBOR  CLEAR     28  27  93 CALM      29.92S FOG
TWO HARBORS    CLOUDY    30  25  80 CALM      29.87S HAZE
SILVER BAY     CLEAR     27  27 100 CALM      29.86F FOG
GRAND MARAIS     N/A     33  30  88 W6        29.90S WCI  28
G MARAIS ARPRT FOG       25  21  86 S7        29.85  VSB<1/4 WCI  17
$$
MNZ029>031-032-039>041-046>048-054>057-064-180100-
   West Central Minnesota

CITY           SKY/WX    TMP DP  RH WIND       PRES   REMARKS
FERGUS FALLS   CLOUDY    18  16  93 SE9       29.97S WCI   6
WHEATON        CLOUDY    27  23  86 SE9       29.95R WCI  17
MORRIS         CLOUDY    16  12  86 SE8       29.93F WCI   5
ALEXANDRIA     CLOUDY    18  14  84 S6        29.92F WCI  10
ELBOW LAKE     FAIR      17  14  90 S9        29.93R FOG     WCI   5
WADENA         CLOUDY    19  14  79 S6        29.90S WCI  11
GLENWOOD       CLOUDY    16  12  86 S8        29.94S WCI   5
APPLETON       CLOUDY    21  16  79 S5        29.95F WCI  15
ORTONVILLE     CLOUDY    19  16  86 CALM      29.94S
MADISON        CLOUDY    19  18  93 S9        29.95F WCI   9
WILLMAR        FAIR      16  14  93 CALM      29.98F
$$
MNZ033>034-036-042>043-049>051-058-059-180100-
   Central Minnesota

CITY           SKY/WX    TMP DP  RH WIND       PRES   REMARKS
ST CLOUD       CLOUDY    27  26  96 SW9       29.96S WCI  18
6HR MIN TEMP:  27; 6HR MAX TEMP:  30;

SAUK CENTRE    FAIR      19  14  81 S5        29.94F WCI  12
PAYNESVILLE    CLOUDY    21  17  83 S6        29.96F WCI  14
AITKIN         CLOUDY    28  14  54 S5        29.89F WCI  23
PINE RIVER     CLOUDY    21  14  73 CALM      29.93S
BRAINERD       CLOUDY    25  15  66 S7        29.91F WCI  17
STAPLES        CLOUDY    21  12  68 S3        29.91S
LONG PRAIRIE   FAIR      19  14  79 S5        29.93S WCI  13
LITTLE FALLS   CLOUDY    25  19  80 S3        29.95S
LITCHFIELD     CLOUDY    23  23 100 SW3       29.99S FOG
BUFFALO        CLOUDY    31  29  92 SW5       29.99S WCI  26
MAPLE LAKE     CLOUDY    31  30  96 SW5       29.98S WCI  26
HUTCHINSON       N/A     24  23  98 CALM      30.00S FOG
$$
MNZ037-044-045-052-053-180100-
   East Central Minnesota

CITY           SKY/WX    TMP DP  RH WIND       PRES   REMARKS
PRINCETON      CLOUDY    32  28  86 SW5       29.97S WCI  27
MORA           CLOUDY    27  25  93 SW3       29.97S FOG
CAMBRIDGE      CLOUDY    34  27  75 SW6       29.95S WCI  29
RUSH CITY      CLOUDY    32  30  93 SW3       29.96S
MOOSE LAKE     CLOUDY    32  27  80 SW5       29.90R WCI  27
HINCKLEY       FAIR      28  28 100 SW7       29.94S WCI  21
CLOQUET        CLOUDY    30  23  74 SW5       29.89S WCI  25
MCGREGOR       CLOUDY    28  19  69 S5        29.90F WCI  23
$$
MNZ071>073-080-081-089-090-097-098-180100-
   Southwest Minnesota

CITY           SKY/WX    TMP DP  RH WIND       PRES   REMARKS
MONTEVIDEO     PTCLDY    19  16  86 SW6       29.98F WCI  11
GRANITE FALLS  CLOUDY    20  17  87 S9        29.99F WCI   9
CANBY            N/A     27  22  79 CALM      29.96F
MARSHALL       CLOUDY    25  21  85 SW7       29.98S WCI  17
REDWOOD FALLS  CLOUDY    24  18  77 S5        29.99S WCI  18
OLIVIA         CLOUDY    21  18  86 S5        29.99S WCI  15
PIPESTONE      CLOUDY    27  23  86 SW5       29.98F WCI  21
WINDOM           N/A     28  27  93 SW7       30.00S WCI  21
WORTHINGTON    CLEAR     27  25  92 SW10      30.00  WCI  17
JACKSON        CLEAR     28  27  93 SW5       30.01R WCI  23
TRACY          CLOUDY    29  26  86 SW15      29.98S WCI  18
SLAYTON        CLOUDY    26  24  91 SW10      29.99S WCI  16
$$
MNZ065>067-074>077-082>085-091>093-180100-
   South Central Minnesota

CITY           SKY/WX    TMP DP  RH WIND       PRES   REMARKS
MANKATO        CLOUDY    29  28  96 W9        30.02R FOG     WCI  20
NEW ULM        MOCLDY    28  28 100 CALM      30.01S
ST JAMES       CLEAR     28  28 100 S3        30.02S
FAIRMONT       PTCLDY    29  28  96 SW6       30.03R WCI  23
GLENCOE        PTCLDY    29  29  98 SW5       29.99S FOG     WCI  24
FARIBAULT        N/A     34  32  93 SW5       30.01S FOG     WCI  30
OWATONNA       CLOUDY    32  30  93 W3        30.00F FOG
WASECA         CLOUDY    30  30 100 SW7       30.02F FOG     WCI  23
ALBERT LEA     FOG       30  30 100 CALM      30.01S VSB 3/4
$$
MNZ078>079-086>088-094>096-180100-
   Southeast Minnesota

CITY           SKY/WX    TMP DP  RH WIND       PRES   REMARKS
ROCHESTER      CLOUDY    32  32 100 NW12      29.99S WCI  23
6HR MIN TEMP:  32; 6HR MAX TEMP:  32;

RED WING       CLOUDY    34  30  86 CALM      29.99S FOG
STANTON        CLOUDY    34  32  93 W6        29.99F WCI  29
DODGE CENTER   CLOUDY    32  30  93 CALM      29.99S FOG
WINONA         CLOUDY    34  32  93 NW5       30.01R WCI  30
AUSTIN         CLOUDY    34  30  86 NW6       30.00S FOG     WCI  29
PRESTON        CLOUDY    32  31  96 NW10      29.99R FOG     WCI  24
$$
ABBREVIATIONS USED IN REMARKS
   TC - TEMPERATURES IN CELSIUS
  WCI - WIND CHILL INDEX
   HX - HEAT INDEX
  VSB - VISIBILITY
$$




USA.gov is the U.S. government's official web portal to all federal, state and local government web resources and services.